Location: Rottenacker
(48.2350°N, 9.6886°E)
Time: 22:55:22
(UTC+02:00)

ISS - Visible Passes

Search period start: 25 September 2020 00:00
Search period end: 05 October 2020 00:00
Orbit: 419 x 420 km, 51.6° (Epoch: 26 September)

Date Brightness Start Highest point End Pass type
(mag) Time Alt. Az. Time Alt. Az. Time Alt. Az.
25 Sep -2.9 20:58:09 10° WNW 21:01:25 44° N 21:02:08 38° NE visible
26 Sep -3.0 20:10:40 10° W 20:13:56 46° N 20:16:31 15° ENE visible
26 Sep -1.6 21:47:44 10° WNW 21:49:28 27° WNW 21:49:28 27° WNW visible
27 Sep -3.3 21:00:19 10° WNW 21:03:37 50° N 21:03:50 49° NNE visible
28 Sep -3.0 20:12:51 10° WNW 20:16:08 46° N 20:18:11 20° ENE visible
28 Sep -1.3 21:49:45 10° WNW 21:51:09 23° WNW 21:51:09 23° WNW visible
29 Sep -3.7 21:02:19 10° WNW 21:05:30 72° NNW 21:05:30 72° NNW visible
30 Sep -3.5 20:14:53 10° WNW 20:18:14 60° NNE 20:19:53 27° E visible
30 Sep -0.9 21:51:49 10° WNW 21:52:51 18° W 21:52:51 18° W visible
01 Oct -3.2 19:27:26 10° WNW 19:30:44 50° N 19:34:03 10° E visible
01 Oct -3.1 21:04:18 10° WNW 21:07:15 52° WSW 21:07:15 52° WSW visible
02 Oct -3.8 20:16:48 10° WNW 20:20:12 81° SSW 20:21:42 30° ESE visible
02 Oct -0.5 21:54:19 10° W 21:54:40 11° W 21:54:40 11° W visible
03 Oct -3.7 19:29:21 10° WNW 19:32:44 76° NNE 19:36:06 10° ESE visible
03 Oct -2.0 21:06:28 10° W 21:09:10 25° SW 21:09:10 25° SW visible
04 Oct -2.6 20:18:48 10° WNW 20:21:58 37° SSW 20:23:45 21° SSE visible
